BAW186 KAUS-EGLL

Flight info

Callsign BAW186
Flight time N/A
Altitude 35000
Route ILEXY4 ZENZI DCT LFK DCT ELD J29 MEM DCT BWG DCT YOCKY Q68 HVQ DCT FINKS DCT LDN DCT MRB DCT EMI DCT RBV Q430 ACK DCT BRADD N261B NICSO/M086F350 NATW GISTI/N0493F350 DCT ENJEX DCT AVZAC DCT INFEC DCT JETZI DCT AMFUL DCT ORZEB P2 SIRIC
Aircraft B789/H-SDE1E2E3FGHIJ2J3J4J5M1RWXY/LB1D1

Departure

Time N/A
Airport Austin Bergstrom International Airport (KAUS)

Arrival

Time 2026-05-04 07:59
Airport London Heathrow Airport (EGLL)
Time Latitude Longitude Altitude Speed Heading
2026-05-04 06:30 53.13751 -16.91500 38250 ft 487 kts 91°
2026-05-04 06:30 53.13555 -16.85913 38698 ft 487 kts 91°
2026-05-04 06:30 53.13158 -16.74777 39197 ft 492 kts 91°
2026-05-04 06:31 53.12738 -16.63364 39208 ft 492 kts 91°
2026-05-04 06:31 53.12312 -16.52086 39204 ft 486 kts 91°
2026-05-04 06:34 53.10069 -15.96663 39205 ft 487 kts 91°
2026-05-04 06:34 53.09580 -15.85375 39201 ft 487 kts 91°
2026-05-04 06:37 53.06430 -15.17883 39206 ft 485 kts 92°
2026-05-04 06:38 53.05872 -15.06714 39204 ft 485 kts 92°
2026-05-04 06:40 53.03526 -14.61930 39195 ft 486 kts 92°
2026-05-04 06:41 53.02275 -14.39289 39194 ft 485 kts 92°
2026-05-04 06:41 53.01643 -14.28126 39187 ft 485 kts 92°
2026-05-04 06:42 53.01002 -14.17006 39187 ft 484 kts 92°
2026-05-04 06:44 52.97680 -13.72504 39179 ft 485 kts 95°
2026-05-04 06:44 52.96738 -13.61463 39180 ft 485 kts 95°
2026-05-04 06:45 52.95773 -13.50379 39181 ft 485 kts 95°
2026-05-04 06:45 52.94796 -13.39261 39176 ft 485 kts 95°
2026-05-04 06:46 52.93812 -13.28172 39182 ft 485 kts 95°
2026-05-04 06:46 52.92824 -13.17181 39177 ft 485 kts 95°
2026-05-04 06:48 52.88740 -12.72890 39161 ft 486 kts 95°
2026-05-04 06:50 52.84499 -12.28762 39157 ft 485 kts 96°
2026-05-04 06:51 52.83413 -12.17744 39149 ft 486 kts 96°
2026-05-04 06:51 52.82315 -12.06718 39150 ft 486 kts 96°
2026-05-04 06:52 52.81212 -11.95739 39143 ft 486 kts 96°
2026-05-04 06:52 52.80095 -11.84736 39144 ft 485 kts 96°
2026-05-04 06:53 52.79160 -11.75595 39136 ft 485 kts 96°
2026-05-04 06:53 52.78025 -11.64609 39136 ft 485 kts 97°
2026-05-04 06:54 52.76689 -11.51801 39137 ft 486 kts 97°
2026-05-04 06:54 52.75719 -11.42590 39131 ft 486 kts 97°
2026-05-04 06:55 52.74558 -11.31659 39127 ft 486 kts 97°
2026-05-04 06:55 52.73377 -11.20638 39121 ft 486 kts 97°
2026-05-04 06:57 52.68574 -10.76825 39109 ft 486 kts 97°
2026-05-04 06:58 52.67347 -10.65889 39107 ft 486 kts 97°
2026-05-04 06:58 52.66107 -10.54922 39098 ft 486 kts 97°
2026-05-04 06:59 52.64868 -10.44061 39095 ft 486 kts 98°
2026-05-04 06:59 52.63609 -10.33115 39096 ft 487 kts 98°
2026-05-04 07:01 52.58451 -9.89225 39085 ft 488 kts 99°
2026-05-04 07:02 52.57144 -9.78338 39081 ft 488 kts 99°
2026-05-04 07:02 52.55815 -9.67356 39079 ft 488 kts 99°
2026-05-04 07:03 52.54491 -9.56502 39062 ft 487 kts 99°
2026-05-04 07:03 52.53150 -9.45594 39057 ft 487 kts 99°
2026-05-04 07:04 52.51790 -9.34628 39066 ft 487 kts 99°
2026-05-04 07:04 52.50427 -9.23717 39067 ft 488 kts 99°
2026-05-04 07:05 52.49053 -9.12819 39070 ft 488 kts 99°
2026-05-04 07:05 52.47681 -9.02006 39068 ft 488 kts 100°
2026-05-04 07:06 52.45580 -8.85624 39071 ft 488 kts 100°
2026-05-04 07:07 52.44175 -8.74768 39068 ft 489 kts 100°
2026-05-04 07:09 52.38418 -8.31154 39051 ft 490 kts 101°
2026-05-04 07:09 52.36957 -8.20286 39054 ft 490 kts 101°
2026-05-04 07:10 52.35480 -8.09390 39052 ft 491 kts 101°
2026-05-04 07:12 52.29471 -7.65861 39051 ft 491 kts 102°
2026-05-04 07:12 52.27942 -7.54977 39050 ft 491 kts 102°
2026-05-04 07:13 52.26405 -7.44125 39053 ft 491 kts 102°
2026-05-04 07:13 52.24858 -7.33274 39055 ft 491 kts 102°
2026-05-04 07:14 52.20953 -7.06227 39057 ft 490 kts 102°
2026-05-04 07:15 52.19369 -6.95390 39057 ft 490 kts 102°
2026-05-04 07:15 52.17787 -6.84640 39053 ft 490 kts 102°
2026-05-04 07:16 52.16187 -6.73844 39044 ft 490 kts 102°
2026-05-04 07:16 52.14574 -6.63034 39039 ft 490 kts 102°
2026-05-04 07:17 52.12953 -6.52248 39030 ft 490 kts 102°
2026-05-04 07:17 52.11322 -6.41460 39025 ft 491 kts 103°
2026-05-04 07:18 52.09680 -6.30677 39016 ft 491 kts 103°
2026-05-04 07:18 52.08026 -6.19891 39018 ft 492 kts 103°
2026-05-04 07:19 52.06362 -6.09108 39016 ft 492 kts 103°
2026-05-04 07:19 52.04076 -5.98683 38998 ft 494 kts 113°
2026-05-04 07:20 52.01190 -5.88476 39014 ft 495 kts 114°
2026-05-04 07:20 51.98330 -5.78327 38992 ft 496 kts 114°
2026-05-04 07:22 51.86738 -5.37736 38985 ft 497 kts 114°
2026-05-04 07:23 51.83830 -5.27657 38984 ft 497 kts 115°
2026-05-04 07:23 51.80891 -5.17519 38999 ft 498 kts 115°
2026-05-04 07:24 51.77948 -5.07408 38997 ft 498 kts 114°
2026-05-04 07:24 51.75235 -4.97096 38981 ft 498 kts 113°
2026-05-04 07:26 51.64349 -4.56119 38980 ft 498 kts 113°
2026-05-04 07:27 51.61582 -4.45824 38982 ft 499 kts 113°
2026-05-04 07:27 51.58842 -4.35648 38981 ft 499 kts 113°
2026-05-04 07:28 51.56056 -4.25359 38993 ft 500 kts 114°
2026-05-04 07:28 51.53883 -4.14826 39012 ft 499 kts 100°
2026-05-04 07:29 51.52665 -4.03827 38991 ft 500 kts 100°
2026-05-04 07:29 51.51415 -3.92800 38991 ft 500 kts 101°
2026-05-04 07:30 51.50169 -3.81826 38998 ft 501 kts 100°
2026-05-04 07:30 51.48903 -3.70889 39000 ft 501 kts 101°
2026-05-04 07:31 51.47749 -3.59821 39019 ft 500 kts 95°
2026-05-04 07:33 51.45485 -3.21132 38657 ft 492 kts 96°
2026-05-04 07:33 51.45149 -3.15651 38365 ft 492 kts 96°
2026-05-04 07:33 51.44812 -3.10169 38104 ft 491 kts 96°
2026-05-04 07:33 51.44480 -3.04782 37819 ft 490 kts 96°
2026-05-04 07:34 51.44141 -2.99329 37463 ft 488 kts 96°
2026-05-04 07:34 51.43799 -2.93882 36790 ft 491 kts 96°
2026-05-04 07:34 51.43459 -2.88502 36659 ft 488 kts 96°
2026-05-04 07:34 51.43113 -2.83076 36350 ft 488 kts 96°
2026-05-04 07:35 51.42767 -2.77667 35809 ft 486 kts 96°
2026-05-04 07:35 51.42422 -2.72322 35196 ft 487 kts 97°
2026-05-04 07:35 51.42069 -2.66904 34623 ft 486 kts 97°
2026-05-04 07:35 51.41716 -2.61512 34030 ft 485 kts 97°
2026-05-04 07:36 51.41365 -2.56193 33324 ft 484 kts 97°
2026-05-04 07:36 51.41128 -2.52627 32787 ft 485 kts 97°
2026-05-04 07:38 51.38547 -2.14778 30128 ft 480 kts 99°
2026-05-04 07:38 51.38173 -2.09439 29831 ft 479 kts 99°
2026-05-04 07:38 51.37802 -2.04170 29539 ft 477 kts 99°
2026-05-04 07:38 51.37430 -1.98941 29229 ft 476 kts 100°
2026-05-04 07:39 51.37051 -1.93641 28950 ft 474 kts 100°
2026-05-04 07:39 51.36674 -1.88392 28662 ft 473 kts 100°
2026-05-04 07:39 51.36302 -1.83247 28182 ft 470 kts 100°
2026-05-04 07:39 51.35925 -1.78070 27677 ft 468 kts 100°
2026-05-04 07:40 51.35546 -1.72898 27179 ft 465 kts 100°
2026-05-04 07:40 51.35170 -1.67799 26702 ft 463 kts 100°
2026-05-04 07:40 51.34789 -1.62659 26203 ft 461 kts 100°
2026-05-04 07:40 51.34413 -1.57614 25729 ft 459 kts 100°
2026-05-04 07:41 51.34032 -1.52551 25270 ft 457 kts 100°
2026-05-04 07:41 51.33650 -1.47488 24794 ft 455 kts 100°
2026-05-04 07:41 51.33274 -1.42538 24346 ft 453 kts 100°
2026-05-04 07:41 51.32891 -1.37528 23890 ft 451 kts 100°
2026-05-04 07:42 51.32506 -1.32523 23406 ft 449 kts 100°
2026-05-04 07:42 51.32127 -1.27619 22958 ft 445 kts 100°
2026-05-04 07:42 51.31750 -1.22760 22517 ft 441 kts 99°
2026-05-04 07:42 51.31372 -1.17870 22063 ft 437 kts 98°
2026-05-04 07:43 51.31282 -1.13059 21574 ft 436 kts 92°
2026-05-04 07:43 51.31204 -1.08258 21133 ft 431 kts 96°
2026-05-04 07:43 51.31032 -1.03477 20675 ft 427 kts 95°
2026-05-04 07:43 51.30869 -0.98742 20269 ft 423 kts 95°
2026-05-04 07:44 51.30700 -0.94111 19755 ft 419 kts 95°
2026-05-04 07:44 51.30527 -0.89508 19278 ft 414 kts 95°
2026-05-04 07:44 51.30358 -0.85179 18825 ft 410 kts 95°
2026-05-04 07:44 51.30177 -0.80662 18335 ft 406 kts 95°
2026-05-04 07:45 51.30007 -0.76535 17841 ft 402 kts 95°
2026-05-04 07:45 51.29819 -0.72084 17252 ft 399 kts 95°
2026-05-04 07:45 51.29703 -0.67636 16666 ft 397 kts 92°
2026-05-04 07:45 51.29688 -0.63253 16102 ft 394 kts 91°
2026-05-04 07:46 51.29698 -0.60345 15726 ft 393 kts 91°
2026-05-04 07:46 51.29711 -0.58032 15432 ft 391 kts 91°
2026-05-04 07:47 51.29740 -0.53684 14888 ft 389 kts 91°
2026-05-04 07:47 51.29770 -0.49354 14329 ft 386 kts 91°
2026-05-04 07:47 51.29798 -0.45114 13831 ft 384 kts 91°
2026-05-04 07:49 51.30022 -0.16146 9937 ft 363 kts 84°
2026-05-04 07:49 51.30528 -0.12210 9359 ft 360 kts 75°
2026-05-04 07:49 51.31254 -0.08490 9322 ft 335 kts 72°
2026-05-04 07:50 51.31978 -0.05130 9258 ft 310 kts 71°
2026-05-04 07:50 51.32741 -0.02030 9063 ft 292 kts 65°
2026-05-04 07:50 51.33677 0.00888 8613 ft 292 kts 62°
2026-05-04 07:50 51.34876 0.03428 8125 ft 290 kts 34°
2026-05-04 07:51 51.36638 0.04890 7725 ft 282 kts 21°
2026-05-04 07:51 51.38498 0.05855 7171 ft 281 kts 13°
2026-05-04 07:51 51.40381 0.06561 6670 ft 279 kts 12°
2026-05-04 07:51 51.42278 0.07212 6147 ft 276 kts 11°
2026-05-04 07:52 51.44149 0.07506 5612 ft 273 kts 348°
2026-05-04 07:52 51.45801 0.06205 5228 ft 267 kts 321°
2026-05-04 07:52 51.47152 0.04165 4754 ft 265 kts 313°
2026-05-04 07:52 51.48049 0.01612 4298 ft 264 kts 283°
2026-05-04 07:53 51.48189 -0.01201 4241 ft 251 kts 271°
2026-05-04 07:54 51.47839 -0.18362 2647 ft 191 kts 271°
2026-05-04 07:55 51.47832 -0.20444 2472 ft 185 kts 270°
2026-05-04 07:55 51.47825 -0.22478 2487 ft 183 kts 270°
2026-05-04 07:55 51.47819 -0.24564 2443 ft 190 kts 270°
2026-05-04 07:55 51.47813 -0.26651 2200 ft 183 kts 270°
2026-05-04 07:56 51.47806 -0.28681 1942 ft 179 kts 271°
2026-05-04 07:56 51.47804 -0.29488 1855 ft 178 kts 271°
2026-05-04 07:56 51.47805 -0.31421 1617 ft 175 kts 271°
2026-05-04 07:56 51.47797 -0.33377 1367 ft 174 kts 271°
2026-05-04 07:57 51.47791 -0.35308 1137 ft 171 kts 271°
2026-05-04 07:57 51.47786 -0.36581 967 ft 171 kts 271°
2026-05-04 07:57 51.47785 -0.37263 874 ft 171 kts 271°
2026-05-04 07:57 51.47778 -0.39119 639 ft 172 kts 271°
2026-05-04 07:58 51.47777 -0.40965 361 ft 162 kts 272°
2026-05-04 07:58 51.47765 -0.42786 174 ft 163 kts 271°
2026-05-04 07:58 51.47765 -0.44564 96 ft 143 kts 268°
2026-05-04 07:58 51.47760 -0.45736 90 ft 67 kts 270°
2026-05-04 07:59 51.47759 -0.46338 96 ft 47 kts 267°
2026-05-04 07:59 51.47711 -0.46698 97 ft 21 kts 242°
2026-05-04 07:59 51.47664 -0.46836 96 ft 9 kts 238°
2026-05-04 07:59 51.47629 -0.46875 96 ft 6 kts 204°
2026-05-04 08:00 51.47596 -0.46917 95 ft 5 kts 218°
2026-05-04 08:00 51.47567 -0.46928 96 ft 6 kts 187°
2026-05-04 08:00 51.47517 -0.46947 95 ft 9 kts 218°
2026-05-04 08:02 51.47490 -0.47692 92 ft 4 kts 270°
2026-05-04 08:02 51.47490 -0.47721 92 ft 0 kts 270°
2026-05-04 08:03 51.47490 -0.47728 92 ft 2 kts 270°
2026-05-04 08:03 51.47489 -0.47778 92 ft 8 kts 266°
2026-05-04 08:03 51.47457 -0.47858 93 ft 9 kts 209°
2026-05-04 08:04 51.47403 -0.47874 94 ft 7 kts 182°
2026-05-04 08:04 51.47344 -0.47875 92 ft 10 kts 180°
2026-05-04 08:04 51.47276 -0.47874 92 ft 10 kts 180°
2026-05-04 08:04 51.47207 -0.47874 94 ft 10 kts 179°
2026-05-04 08:05 51.47135 -0.47874 92 ft 10 kts 180°
2026-05-04 08:05 51.47112 -0.47874 92 ft 10 kts 179°
2026-05-04 08:05 51.46988 -0.47872 92 ft 11 kts 180°
2026-05-04 08:05 51.46924 -0.47905 95 ft 9 kts 234°
2026-05-04 08:06 51.46914 -0.47995 92 ft 8 kts 268°
2026-05-04 08:06 51.46913 -0.48020 93 ft 0 kts 268°